Barstow Daggett Airport Daggett US
ICAO: KDAG
IATA: DAG
Category: Medium
Scheduled Services: No

Elevation: 1930 ft
TransAlt. 18000 ft.

Airport Communications:
ASOS:132.175
LOS ANGELES CNTR:132.5
HAWK 86:46.7
RIVERSIDE RDO:122.2
CTAF/UNICOM:123

KDAG Zoom In..

If you have problems with the map follow the link
https://www.worldairports.se/pages/airport.php?
ICAO=KDAG

Runways:

(A) RW 04 length 5123 ft width 100 ft
---- / hdg 35

(B) RW 08 length 6402 ft width 150 ft
---- / hdg 74

(C) RW 22 length 5123 ft width 100 ft
---- / hdg 215

(D) RW 26 length 6402 ft width 150 ft
---- / hdg 254

Location; KDAG
Day. 21 / Time. 05.50 Zulu
* Altimeter: 29.99
* Temperature: 19° c. 66.2°f.
* Wind from: 010° Speed 04 kn.
Dewpoint: 04° c.
Visibility: 10 Statute Miles.
Clouds: Few 9500 ft.
Clouds: Scattered 12000 ft.

KDAG 210550Z AUTO 01004KT 10SM FEW095 SCT120 19/04 A2999 RMK AO2 SLP135 T01940039 10272 20189 53006


Wind From 010°
Speed 04 kn.

 
 
jpsmedia.com for Web Design worldairports.se 2018   terms of use